Content
SEND FEEDBACK

United States of America Flag

BRADSHAW, NEBRASKA


Home > North America > United States > Nebraska
Elevation: 1720 feet     Latitude: 40 53N     Longitude: 097 45W

WEATHER
 
SELECT A DAY
Number of Records: 353,830;   Date Range: 1/14/02 - 3/21/16
 
SHARE

PRINT THIS DATA

[ ← Previous Day ]
WEATHER ALMANAC - FEBRUARY 1, 2013
[ Next Day → ]
[ °C ]   °F
Weather ElementAverageHighLow
Temperature20 °F32 °F (3:15 pm)6.8 °F (3:35 am)
Dewpoint14.2 °F28.4 °F (11:35 pm)-2.2 °F (12:35 am)
Humidity78.2 %100 % (11:55 pm)62 % (12:35 am)
Barometer30.14 in30.34 in (12:35 am)30.01 in (4:35 pm)
Wind Speed10.1 mph23 mph (1:55 pm)
Wind Gust26.5 mph (3:15 pm)
Weather ElementAverage
Visibility10 mi
Wind DirectionESE (128.7 °)

Weather ElementTotal
Precipitation---
Heating Degree Days45.6 (Base 65)
Averaged from 69 records on February 1, 2013
WEATHER CONDITIONS BREAKOUT
WIND DIRECTION BREAKOUT
WEATHER BY HOUR - FEBRUARY 1, 2013
[ °C ]   °F
Local TimeTemperatureDewpointHumidityBarometerVisibilityWind DirectionWind SpeedGust SpeedPrecipitationEventsConditions
12:35 AM8.6 °F-2.2 °F62 %30.34 in10.0 miCalmOvercast
12:55 AM8.6 °F-2.2 °F62 %30.34 in10.0 miCalmOvercast
1:15 AM8.6 °F-2.2 °F62 %30.33 in10.0 miCalmOvercast
1:35 AM8.6 °F-2.2 °F62 %30.32 in10.0 miCalmOvercast
1:55 AM8.6 °F-0.4 °F67 %30.33 in10.0 miCalmOvercast
2:15 AM8.6 °F-0.4 °F67 %30.33 in10.0 miCalmOvercast
2:35 AM8.6 °F-0.4 °F67 %30.32 in10.0 miCalmOvercast
2:55 AM8.6 °F-0.4 °F67 %30.32 in10.0 miCalmOvercast
3:15 AM8.6 °F-0.4 °F67 %30.30 in10.0 miCalmMostly Cloudy
3:35 AM6.8 °F-0.4 °F72 %30.30 in10.0 miCalmMostly Cloudy
3:55 AM6.8 °F-0.4 °F72 %30.30 in10.0 miCalmScattered Clouds
4:15 AM6.8 °F-0.4 °F72 %30.30 in10.0 miCalmPartly Cloudy
4:35 AM6.8 °F-0.4 °F72 %30.29 in10.0 miCalmClear
4:55 AM6.8 °F-0.4 °F72 %30.28 in10.0 miCalmClear
5:15 AM6.8 °F-0.4 °F72 %30.27 in10.0 miCalmClear
5:35 AM6.8 °F-0.4 °F72 %30.27 in10.0 miCalmClear
5:55 AM6.8 °F-0.4 °F72 %30.27 in10.0 miCalmClear
6:35 AM6.8 °F-0.4 °F72 %30.25 in10.0 miSouth (170°)9.2 mphClear
6:55 AM6.8 °F-0.4 °F72 %30.25 in10.0 miCalmClear
7:15 AM6.8 °F-0.4 °F72 %30.24 in10.0 miSouth (170°)9.2 mphClear
7:55 AM6.8 °F-0.4 °F72 %30.22 in10.0 miSSE (160°)9.2 mphPartly Cloudy
8:15 AM6.8 °F1.4 °F79 %30.21 in10.0 miSouth (180°)11.5 mphScattered Clouds
8:35 AM8.6 °F1.4 °F73 %30.20 in10.0 miSouth (180°)12.7 mphClear
8:55 AM12.2 °F5.0 °F73 %30.19 in10.0 miSouth (190°)16.1 mphClear
9:15 AM12.2 °F6.8 °F79 %30.18 in10.0 miSouth (190°)13.8 mph21.9 mphClear
9:35 AM14.0 °F6.8 °F73 %30.18 in10.0 miSouth (190°)12.7 mphClear
9:55 AM15.8 °F10.4 °F79 %30.17 in10.0 miSSW (200°)16.1 mphPartly Cloudy
10:15 AM17.6 °F12.2 °F79 %30.17 in10.0 miSSW (200°)19.6 mphMostly Cloudy
10:35 AM17.6 °F14.0 °F86 %30.16 in10.0 miSSW (210°)18.4 mphOvercast
10:55 AM19.4 °F14.0 °F80 %30.15 in10.0 miSSW (200°)19.6 mph25.3 mphMostly Cloudy
11:15 AM19.4 °F15.8 °F86 %30.15 in10.0 miSSW (200°)19.6 mphMostly Cloudy
11:35 AM21.2 °F15.8 °F80 %30.14 in10.0 miSSW (210°)18.4 mph21.9 mphPartly Cloudy
11:55 AM23.0 °F17.6 °F80 %30.13 in10.0 miSSW (200°)16.1 mphClear
12:15 PM24.8 °F19.4 °F80 %30.12 in10.0 miSSW (210°)16.1 mphClear
12:35 PM26.6 °F21.2 °F80 %30.10 in10.0 miSSW (200°)18.4 mph21.9 mphClear
12:55 PM26.6 °F23.0 °F86 %30.10 in10.0 miSW (220°)20.7 mphClear
1:15 PM28.4 °F23.0 °F80 %30.09 in10.0 miSSW (210°)21.9 mph25.3 mphPartly Cloudy
1:35 PM28.4 °F23.0 °F80 %30.08 in10.0 miSSW (200°)17.3 mphMostly Cloudy
1:55 PM28.4 °F23.0 °F80 %30.07 in10.0 miSSW (210°)23.0 mphMostly Cloudy
2:15 PM28.4 °F24.8 °F86 %30.05 in10.0 miSSW (200°)21.9 mph25.3 mphPartly Cloudy
2:35 PM30.2 °F24.8 °F80 %30.05 in10.0 miSSW (210°)20.7 mph24.2 mphPartly Cloudy
2:55 PM30.2 °F24.8 °F80 %30.04 in10.0 miSSW (210°)21.9 mphScattered Clouds
3:15 PM32.0 °F24.8 °F75 %30.04 in10.0 miSSW (210°)21.9 mph26.5 mphMostly Cloudy
3:35 PM32.0 °F24.8 °F75 %30.03 in10.0 miSSW (210°)20.7 mphScattered Clouds
3:55 PM32.0 °F24.8 °F75 %30.02 in10.0 miSSW (210°)18.4 mphScattered Clouds
4:15 PM32.0 °F24.8 °F75 %30.02 in10.0 miSSW (210°)19.6 mph23.0 mphScattered Clouds
4:35 PM32.0 °F24.8 °F75 %30.01 in10.0 miSSW (210°)16.1 mph21.9 mphPartly Cloudy
4:55 PM32.0 °F24.8 °F75 %30.02 in10.0 miSSW (210°)15.0 mphClear
5:15 PM32.0 °F24.8 °F75 %30.02 in10.0 miSSW (200°)13.8 mph20.7 mphPartly Cloudy
5:35 PM30.2 °F24.8 °F80 %30.01 in10.0 miSSW (200°)17.3 mphMostly Cloudy
5:55 PM28.4 °F24.8 °F86 %30.01 in10.0 miSSW (200°)16.1 mphOvercast
6:15 PM28.4 °F24.8 °F86 %30.01 in10.0 miSouth (190°)15.0 mph19.6 mphOvercast
6:35 PM28.4 °F23.0 °F80 %30.01 in10.0 miSSW (200°)12.7 mphMostly Cloudy
6:55 PM26.6 °F23.0 °F86 %30.02 in10.0 miSouth (190°)11.5 mphScattered Clouds
7:15 PM26.6 °F23.0 °F86 %30.02 in10.0 miSSW (200°)10.4 mphScattered Clouds
7:35 PM26.6 °F23.0 °F86 %30.02 in10.0 miSSW (200°)13.8 mphClear
7:55 PM26.6 °F23.0 °F86 %30.02 in10.0 miSSW (200°)11.5 mphClear
8:15 PM26.6 °F23.0 °F86 %30.02 in10.0 miSSW (200°)12.7 mphClear
8:35 PM26.6 °F23.0 °F86 %30.03 in10.0 miSSW (210°)11.5 mphScattered Clouds
8:55 PM26.6 °F23.0 °F86 %30.03 in10.0 miSSW (210°)10.4 mphMostly Cloudy
9:15 PM26.6 °F23.0 °F86 %30.03 in10.0 miSW (220°)15.0 mphMostly Cloudy
9:35 PM28.4 °F24.8 °F86 %30.04 in10.0 miWest (280°)8.1 mphMostly Cloudy
9:55 PM28.4 °F24.8 °F86 %30.04 in10.0 miCalmMostly Cloudy
10:15 PM28.4 °F24.8 °F86 %30.05 in10.0 miCalmOvercast
10:35 PM28.4 °F26.6 °F93 %30.05 in10.0 miCalmOvercast
10:55 PM28.4 °F26.6 °F93 %30.05 in10.0 miCalmOvercast
11:15 PM30.2 °F26.6 °F86 %30.06 in10.0 miCalmOvercast
11:35 PM30.2 °F28.4 °F93 %30.07 in10.0 miCalmOvercast
11:55 PM28.4 °F28.4 °F100 %30.08 in10.0 miCalmMostly Cloudy
Hourly data recorded from KJYR, located miles away from Bradshaw, Nebraska




STORIES FROM OUR PARTNERS